GW6421 Weather Reports


time (UTC)temp
C
wind
direction
speed
KPH
gust
KPH
rain 1hr
cm
rain 24hr
cm
rain mn
cm
humidity
%
barometer
mb
20260507064531 16 106 1.6 9.7 0.00 0.25 0.18 87 1015.1
20260507064011 16 138 1.6 9.7 0.00 0.25 0.18 88 1015.1
20260507063508 16 245 0.0 6.4 0.00 0.25 0.18 90 1015.0
20260507063024 16 191 1.6 6.4 0.00 0.25 0.18 89 1014.9
20260507062516 16 134 0.0 8.0 0.00 0.25 0.18 91 1014.9
20260507062010 16 136 0.0 8.0 0.00 0.25 0.18 91 1014.9
20260507061524 16 94 1.6 4.8 0.00 0.25 0.18 91 1014.9
20260507061010 15 88 1.6 3.2 0.00 0.25 0.18 92 1014.9
20260507060508 15 20 1.6 4.8 0.00 0.25 0.18 92 1014.9
20260507060026 15 132 1.6 4.8 0.00 0.25 0.18 94 1014.7
20260507055508 15 115 1.6 6.4 0.00 0.25 0.18 94 1014.6
20260507055018 14 75 3.2 6.4 0.00 0.25 0.18 94 1014.6
20260507054516 14 77 3.2 4.8 0.00 0.25 0.18 94 1014.6
20260507054006 13 86 1.6 4.8 0.00 0.25 0.18 94 1014.6
20260507053506 13 76 1.6 4.8 0.00 0.25 0.18 94 1014.6
20260507053023 13 68 1.6 4.8 0.00 0.25 0.18 94 1014.7
20260507052509 13 55 1.6 4.8 0.00 0.28 0.18 94 1014.6
20260507052007 13 43 1.6 3.2 0.00 0.28 0.18 94 1014.6
20260507051524 13 68 1.6 1.6 0.00 0.28 0.18 94 1014.6
20260507051009 13 68 0.0 3.2 0.00 0.28 0.18 94 1014.6
20260507050514 13 68 1.6 3.2 0.00 0.28 0.18 94 1014.5
20260507050037 12 63 1.6 3.2 0.00 0.28 0.18 94 1014.5
20260507045515 12 40 1.6 3.2 0.00 0.25 0.15 94 1014.4
20260507045008 12 53 1.6 3.2 0.00 0.25 0.15 94 1014.3
20260507044529 12 58 1.6 3.2 0.00 0.25 0.15 94 1014.3
20260507044011 12 60 1.6 3.2 0.00 0.25 0.15 94 1014.3
20260507043507 12 68 1.6 3.2 0.00 0.25 0.15 94 1014.2
20260507043018 12 65 1.6 3.2 0.00 0.28 0.15 94 1014.2
20260507042507 12 37 1.6 3.2 0.00 0.28 0.15 94 1014.2
20260507042007 12 46 1.6 3.2 0.00 0.28 0.15 94 1014.1
20260507041526 12 41 1.6 1.6 0.00 0.28 0.15 94 1014.1
20260507041007 12 41 0.0 3.2 0.00 0.30 0.15 94 1014.0
20260507040509 12 41 1.6 3.2 0.00 0.33 0.15 94 1014.0
20260507040026 12 30 0.0 3.2 0.00 0.36 0.15 94 1014.1
20260507035507 12 33 1.6 3.2 0.00 0.36 0.15 94 1013.9
20260507035011 13 110 0.0 3.2 0.00 0.36 0.15 94 1013.8
20260507034526 13 110 0.0 3.2 0.00 0.36 0.15 94 1013.8
20260507034011 13 119 0.0 1.6 0.00 0.36 0.15 94 1013.8
20260507033509 13 120 0.0 1.6 0.00 0.36 0.15 94 1013.8
20260507033028 13 99 0.0 3.2 0.00 0.38 0.15 94 1013.7
20260507032510 13 76 0.0 4.8 0.00 0.41 0.15 94 1013.8
20260507032012 13 75 1.6 4.8 0.00 0.43 0.15 94 1013.8
20260507031517 13 103 1.6 4.8 0.00 0.46 0.15 94 1013.7
20260507031007 13 86 1.6 4.8 0.00 0.46 0.15 94 1013.8
20260507030511 13 136 0.0 3.2 0.00 0.48 0.15 94 1013.8
20260507030028 13 96 1.6 4.8 0.00 0.48 0.15 94 1013.8
20260507025507 13 141 0.0 4.8 0.00 0.48 0.15 94 1013.8
20260507025011 13 88 1.6 3.2 0.00 0.48 0.15 94 1013.9
20260507024528 13 113 0.0 3.2 0.00 0.48 0.15 94 1013.9
20260507024009 13 134 0.0 3.2 0.00 0.48 0.15 94 1013.9
20260507023509 13 116 1.6 3.2 0.00 0.48 0.15 94 1013.9
20260507023010 13 105 0.0 4.8 0.00 0.48 0.15 94 1014.0
20260507022505 14 127 0.0 4.8 0.00 0.48 0.15 94 1014.0
20260507022006 14 117 0.0 3.2 0.00 0.48 0.15 94 1014.0
20260507021517 14 115 1.6 4.8 0.00 0.48 0.15 94 1014.0
20260507021005 14 90 0.0 6.4 0.00 0.48 0.15 94 1014.0
20260507020506 14 161 0.0 6.4 0.00 0.48 0.15 94 1014.0
20260507020020 14 129 0.0 4.8 0.00 0.48 0.15 94 1014.0
20260507015511 15 140 1.6 4.8 0.00 0.48 0.15 94 1014.1
20260507015007 15 94 0.0 3.2 0.00 0.48 0.15 94 1014.0
20260507014525 15 123 0.0 4.8 0.00 0.48 0.15 94 1014.0
20260507014009 15 107 0.0 4.8 0.00 0.48 0.15 94 1014.0
20260507013507 15 129 0.0 3.2 0.00 0.48 0.15 94 1014.0
20260507013025 15 114 0.0 4.8 0.00 0.48 0.15 94 1014.0
20260507012508 15 108 0.0 4.8 0.00 0.48 0.15 94 1014.0
20260507012010 15 103 0.0 6.4 0.00 0.48 0.15 94 1014.1
20260507011512 15 153 1.6 6.4 0.00 0.48 0.15 94 1014.0
20260507011005 15 103 1.6 4.8 0.00 0.48 0.15 94 1014.0
20260507010509 15 153 1.6 4.8 0.00 0.48 0.15 94 1014.0
20260507010017 15 110 0.0 4.8 0.00 0.48 0.15 93 1014.0
20260507005505 15 132 1.6 6.4 0.00 0.48 0.15 93 1014.1
20260507005010 15 139 1.6 6.4 0.00 0.48 0.15 93 1014.0
20260507004522 15 94 1.6 6.4 0.00 0.48 0.15 93 1014.0
20260507004008 15 77 1.6 4.8 0.00 0.48 0.15 93 1014.2
20260507003508 15 154 1.6 8.0 0.00 0.48 0.15 93 1014.2
20260507003025 15 190 0.0 8.0 0.00 0.48 0.15 93 1014.2
20260507002513 15 158 0.0 8.0 0.05 0.48 0.15 93 1014.1
20260507002014 15 127 3.2 8.0 0.08 0.48 0.15 93 1014.1
20260507001527 15 75 1.6 8.0 0.08 0.48 0.15 94 1014.0
20260507001010 15 72 1.6 6.4 0.08 0.48 0.15 93 1014.1
20260507000513 15 139 1.6 6.4 0.08 0.48 0.15 93 1014.1
20260507000015 16 219 1.6 4.8 0.08 0.48 0.15 94 1014.1
20260506235508 16 164 1.6 6.4 0.08 0.48 0.15 94 1014.1
20260506235009 16 145 0.0 6.4 0.10 0.48 0.15 94 1014.2
20260506234521 16 199 0.0 4.8 0.10 0.48 0.15 94 1014.2
20260506234008 16 236 0.0 3.2 0.10 0.48 0.15 93 1014.2
20260506233510 16 72 1.6 4.8 0.10 0.48 0.15 94 1014.2
20260506233024 16 123 0.0 4.8 0.08 0.46 0.13 94 1014.2
20260506232507 15 97 1.6 3.2 0.05 0.43 0.08 94 1014.3
20260506232007 15 120 0.0 1.6 0.03 0.41 0.08 93 1014.2
20260506231527 15 115 0.0 1.6 0.03 0.38 0.05 93 1014.2
20260506231012 15 115 0.0 1.6 0.03 0.38 0.05 93 1014.2
20260506230509 15 235 0.0 1.6 0.03 0.38 0.05 93 1014.2
20260506230029 15 249 0.0 4.8 0.05 0.38 0.05 93 1014.2
20260506225507 16 131 0.0 4.8 0.05 0.38 0.05 93 1014.1
20260506225012 16 127 0.0 4.8 0.05 0.36 0.03 93 1013.9
20260506224514 16 137 0.0 4.8 0.05 0.36 0.03 93 1014.0
20260506224007 16 131 1.6 3.2 0.08 0.36 0.03 93 1013.9
20260506223505 16 141 0.0 3.2 0.08 0.36 0.03 93 1013.9
20260506223018 16 101 1.6 3.2 0.08 0.36 0.03 93 1013.9
20260506222507 16 127 0.0 6.4 0.08 0.36 0.03 93 1013.9
20260506222014 16 91 1.6 6.4 0.08 0.36 0.03 93 1013.9
20260506221523 16 79 1.6 8.0 0.08 0.36 0.00 93 1014.0
20260506221013 16 150 1.6 9.7 0.08 0.36 0.00 93 1014.0
20260506220509 16 185 3.2 12.9 0.08 0.36 0.00 93 1014.1
20260506220035 16 199 3.2 12.9 0.08 0.33 0.00 93 1014.1
20260506215515 16 155 3.2 9.7 0.08 0.33 0.33 93 1014.1
20260506215010 16 74 4.8 9.7 0.05 0.30 0.30 92 1014.0
20260506214529 16 126 3.2 8.0 0.05 0.30 0.30 92 1014.0
20260506214010 16 86 1.6 12.9 0.03 0.28 0.28 92 1014.0
20260506213510 16 103 3.2 12.9 0.03 0.28 0.28 92 1014.2
20260506213018 16 132 3.2 14.5 0.03 0.28 0.28 92 1014.3
20260506212507 16 108 3.2 14.5 0.03 0.28 0.28 92 1014.3
20260506212007 16 157 1.6 9.7 0.00 0.28 0.28 92 1014.3
20260506211529 16 87 3.2 9.7 0.00 0.28 0.28 92 1014.3
20260506211008 16 82 1.6 8.0 0.00 0.28 0.28 92 1014.3
20260506210512 16 150 1.6 6.4 0.00 0.25 0.25 91 1014.4
20260506210028 16 150 1.6 8.0 0.00 0.25 0.25 91 1014.5
20260506205513 16 133 0.0 8.0 0.00 0.25 0.25 91 1014.4
20260506205010 16 166 1.6 8.0 0.00 0.25 0.25 91 1014.3
20260506204528 16 193 1.6 8.0 0.00 0.25 0.25 90 1014.3
20260506204011 16 122 1.6 6.4 0.00 0.25 0.25 90 1014.2
20260506203515 16 155 1.6 11.3 0.00 0.25 0.25 90 1014.2
20260506203031 16 50 4.8 11.3 0.00 0.25 0.25 90 1014.1
20260506202510 16 57 3.2 8.0 0.00 0.25 0.25 90 1014.1
20260506202012 16 110 1.6 9.7 0.00 0.25 0.25 90 1014.1
20260506201529 16 94 3.2 11.3 0.00 0.25 0.25 89 1014.1
20260506201007 16 141 1.6 11.3 0.00 0.25 0.25 89 1014.0
20260506200509 16 100 3.2 9.7 0.00 0.25 0.25 89 1014.0
20260506200023 16 125 3.2 8.0 0.00 0.25 0.25 89 1013.9
20260506195508 16 112 3.2 9.7 0.00 0.25 0.25 89 1014.0
20260506195011 16 92 3.2 9.7 0.00 0.25 0.25 89 1014.0
20260506194524 16 89 1.6 9.7 0.00 0.25 0.25 88 1014.0
20260506194009 16 122 1.6 8.0 0.00 0.25 0.25 88 1013.9
20260506193512 16 96 3.2 9.7 0.00 0.25 0.25 87 1013.8
20260506193027 16 141 3.2 9.7 0.00 0.25 0.25 87 1013.7
20260506150510 18 117 3.2 14.5 0.00 0.28 0.25 83 1013.1
20260506150008 18 68 6.4 24.1 0.00 0.28 0.25 82 1013.0
20260506145506 18 110 4.8 24.1 0.00 0.28 0.25 83 1013.1
20260506145007 18 162 8.0 20.9 0.00 0.30 0.25 82 1013.0
20260506144509 18 140 4.8 20.9 0.00 0.33 0.25 82 1013.0
20260506144009 18 82 4.8 17.7 0.00 0.38 0.25 82 1013.0
20260506143504 18 124 8.0 19.3 0.00 0.41 0.25 81 1013.0
20260506143018 18 114 8.0 19.3 0.00 0.41 0.25 81 1012.9
20260506142509 18 259 6.4 17.7 0.00 0.41 0.25 80 1012.9
20260506142014 18 154 4.8 20.9 0.00 0.41 0.25 80 1013.0
20260506141515 18 113 8.0 20.9 0.00 0.41 0.25 79 1013.0
20260506141011 18 124 4.8 16.1 0.00 0.41 0.25 79 1013.2
20260506140508 19 152 4.8 12.9 0.00 0.41 0.25 79 1013.2
20260506140026 19 179 4.8 12.9 0.00 0.41 0.25 79 1013.3
20260506135507 19 292 3.2 11.3 0.00 0.41 0.25 79 1013.4
20260506135007 19 148 1.6 16.1 0.00 0.41 0.25 79 1013.5
20260506134510 18 79 6.4 19.3 0.00 0.41 0.25 79 1013.4
20260506134004 19 124 6.4 20.9 0.00 0.41 0.25 78 1013.4
20260506133506 19 130 6.4 20.9 0.00 0.41 0.25 79 1013.4
20260506133025 18 152 4.8 16.1 0.00 0.41 0.25 80 1013.4
20260506132513 18 111 4.8 16.1 0.00 0.41 0.25 80 1013.4
20260506132008 18 103 4.8 17.7 0.00 0.41 0.25 80 1013.4
20260506131518 18 102 1.6 17.7 0.00 0.41 0.25 80 1013.5
20260506131008 19 226 3.2 14.5 0.00 0.41 0.25 79 1013.5
20260506130508 19 140 3.2 16.1 0.00 0.41 0.25 79 1013.6
20260506130019 18 81 4.8 16.1 0.00 0.41 0.25 80 1013.7
20260506125509 18 137 4.8 22.5 0.00 0.41 0.25 79 1013.7
20260506125012 18 103 4.8 22.5 0.00 0.41 0.25 80 1013.7
20260506124522 18 80 4.8 16.1 0.00 0.41 0.25 80 1013.7
20260506124008 18 102 6.4 16.1 0.00 0.41 0.25 81 1013.6
20260506123507 18 66 6.4 19.3 0.00 0.41 0.25 82 1013.6
20260506123008 17 61 4.8 19.3 0.00 0.41 0.25 82 1013.7
20260506122508 18 135 4.8 14.5 0.00 0.41 0.25 82 1013.7
20260506122011 18 189 3.2 11.3 0.00 0.41 0.25 82 1013.9
20260506121514 18 135 3.2 17.7 0.00 0.41 0.25 81 1013.9
20260506121007 18 144 3.2 17.7 0.00 0.41 0.25 80 1013.8
20260506120506 18 45 6.4 16.1 0.00 0.41 0.25 79 1013.8
20260506120021 18 191 4.8 19.3 0.00 0.41 0.25 80 1013.9
20260506115511 18 114 4.8 19.3 0.00 0.41 0.25 81 1013.8
20260506115009 18 155 6.4 24.1 0.00 0.41 0.25 81 1013.8
20260506114533 18 86 4.8 24.1 0.00 0.41 0.25 81 1013.8
20260506114010 18 103 8.0 24.1 0.00 0.41 0.25 80 1013.7
20260506113510 18 110 4.8 12.9 0.00 0.41 0.25 80 1013.8
20260506113020 18 67 3.2 20.9 0.00 0.41 0.25 80 1013.8
20260506112512 18 133 4.8 20.9 0.00 0.41 0.25 79 1013.8
20260506112010 18 54 6.4 20.9 0.00 0.41 0.25 79 1013.8
20260506111512 18 94 4.8 17.7 0.00 0.41 0.25 78 1013.9
20260506111010 19 87 4.8 14.5 0.00 0.41 0.25 77 1013.8
20260506110506 19 147 6.4 20.9 0.00 0.41 0.25 76 1013.8
20260506110020 19 127 6.4 20.9 0.00 0.41 0.25 76 1013.7
20260506105508 19 47 4.8 17.7 0.00 0.41 0.25 78 1013.8
20260506105004 18 221 6.4 17.7 0.00 0.41 0.25 76 1013.8
20260506104504 19 206 4.8 17.7 0.00 0.41 0.25 76 1013.9
20260506104003 19 164 4.8 17.7 0.00 0.41 0.25 75 1014.1
20260506103507 19 158 6.4 16.1 0.00 0.41 0.25 74 1014.1
20260506103004 19 147 6.4 17.7 0.00 0.41 0.25 74 1014.0
20260506102508 19 115 8.0 19.3 0.00 0.41 0.25 73 1014.1
20260506102004 19 98 6.4 19.3 0.00 0.41 0.25 73 1014.1
20260506101508 19 156 6.4 17.7 0.00 0.41 0.25 74 1014.2
20260506101007 18 99 8.0 17.7 0.00 0.41 0.25 74 1014.2
20260506100506 18 75 4.8 16.1 0.00 0.41 0.25 76 1014.1
20260506100021 18 157 3.2 14.5 0.00 0.41 0.25 77 1014.0
20260506095506 18 83 4.8 16.1 0.00 0.41 0.25 77 1014.1
20260506095009 18 196 3.2 16.1 0.00 0.41 0.25 77 1014.2
20260506094503 17 144 4.8 16.1 0.00 0.41 0.25 77 1014.0
20260506094003 18 69 4.8 16.1 0.00 0.41 0.25 77 1014.1
20260506093503 18 176 4.8 14.5 0.00 0.41 0.25 76 1014.0
20260506093005 18 153 3.2 16.1 0.00 0.41 0.25 76 1014.0
20260506092506 18 148 3.2 16.1 0.00 0.41 0.25 75 1014.1
20260506092003 18 199 4.8 16.1 0.00 0.41 0.25 75 1014.0
20260506091506 18 171 4.8 16.1 0.00 0.41 0.25 74 1013.9
20260506091002 18 152 4.8 17.7 0.00 0.41 0.25 74 1013.7
20260506090503 18 60 6.4 17.7 0.00 0.41 0.25 73 1013.7
20260506090011 18 107 4.8 17.7 0.00 0.41 0.25 73 1013.6
20260506085506 18 158 6.4 17.7 0.00 0.41 0.25 72 1013.7
20260506085007 18 141 6.4 14.5 0.00 0.41 0.25 71 1013.6
20260506084513 18 157 6.4 16.1 0.00 0.41 0.25 74 1013.6
20260506084009 18 70 3.2 16.1 0.00 0.41 0.25 77 1013.7
20260506083507 17 69 3.2 12.9 0.00 0.41 0.25 77 1013.8
20260506083004 17 287 3.2 9.7 0.00 0.41 0.25 77 1013.9
20260506082503 17 125 3.2 9.7 0.00 0.41 0.25 76 1014.0
20260506082003 17 158 3.2 9.7 0.00 0.41 0.25 76 1013.9
20260506072507 16 96 3.2 11.3 0.00 0.41 0.25 83 1013.6
20260506072012 16 68 4.8 11.3 0.00 0.41 0.25 84 1013.6
20260506071503 16 164 1.6 9.7 0.00 0.41 0.25 84 1013.5
20260506071003 16 108 3.2 9.7 0.00 0.41 0.25 84 1013.4
20260506070505 16 89 4.8 11.3 0.00 0.41 0.25 85 1013.3